GFSGL_250_spd_057.txt.gz
Wind_Speed
109 115 115 113 115 103 95 88 91 89 89 87 82 78 78 77 74 72 78 85 89 90 92 93 96 88 75 70 67 66 65 62 63 59 54 48 47 42 23 7 2 1 4
108 109 109 109 108 107 105 97 95 91 87 87 83 79 76 73 78 81 88 88 89 95 95 94 91 80 73 69 68 64 65 62 56 55 47 44 40 34 14 8 7 6 8
123 115 108 107 103 101 93 89 86 90 89 88 86 80 83 81 83 89 91 93 91 91 90 84 80 73 70 68 66 62 59 54 54 50 41 37 33 24 13 12 11 13 14
127 130 120 112 102 98 94 92 87 92 92 90 87 86 85 88 91 93 90 91 86 82 79 78 74 72 68 65 61 55 51 51 47 38 33 28 25 20 19 18 21 19 17
104 116 133 129 117 101 95 92 89 93 93 91 93 92 95 95 96 89 92 85 79 76 75 75 74 68 65 58 49 49 48 44 36 34 27 25 24 19 22 20 25 22 17
94 95 109 122 131 124 115 111 110 108 104 104 106 100 101 102 96 94 83 81 77 74 75 74 67 61 51 44 42 43 40 36 32 28 28 25 24 20 22 23 23 24 22
86 89 90 94 109 120 115 109 106 103 102 102 100 96 92 93 82 80 75 74 74 73 70 63 54 49 43 42 39 35 36 34 32 27 25 27 26 22 21 23 26 28 24
70 73 76 78 80 97 107 105 102 100 95 93 91 89 86 78 73 74 75 72 68 65 56 51 44 42 39 34 32 33 32 33 31 23 19 24 24 22 25 28 26 22 24
49 55 58 63 69 70 82 90 91 94 93 89 86 81 75 77 74 71 66 61 55 50 43 39 38 35 30 31 31 29 28 30 28 25 20 21 20 19 21 28 28 28 27
40 45 50 54 58 60 58 54 62 66 69 70 70 72 70 65 60 54 50 44 41 35 32 29 29 28 30 33 31 26 28 29 27 22 19 19 20 18 18 21 32 27 27
37 42 52 55 53 49 42 37 38 43 49 54 56 52 47 45 42 40 36 30 28 27 26 27 28 31 33 31 27 23 24 27 25 21 19 18 18 18 17 21 25 31 30
43 49 54 53 48 44 41 35 33 35 40 38 36 34 35 34 30 27 26 25 24 23 25 29 30 30 29 28 27 24 29 31 24 22 17 16 17 18 16 17 21 23 27
54 59 57 53 51 46 43 36 34 35 34 34 32 31 27 25 24 23 23 23 24 25 27 28 25 25 26 28 31 28 27 26 21 20 19 20 19 15 15 16 17 20 24
59 63 61 54 47 43 37 36 36 33 32 30 28 23 23 22 22 25 26 26 27 27 25 20 20 23 24 22 23 22 22 24 26 28 21 22 17 10 7 9 11 10 6
68 63 56 50 49 43 40 35 31 31 28 28 24 20 20 21 25 27 26 25 22 17 15 15 17 14 12 12 13 11 17 26 28 23 13 10 9 7 5 2 4 5 4
61 59 56 52 48 46 45 40 35 27 23 20 18 20 20 23 23 21 18 18 13 11 8 6 4 4 4 3 3 5 14 18 15 13 15 15 13 10 8 6 5 5 5
58 58 56 51 45 38 35 32 32 24 19 19 16 17 18 15 16 18 18 17 14 17 21 23 24 25 26 25 22 22 27 31 28 23 20 16 12 8 5 3 3 4 5
56 48 40 34 28 22 21 23 19 17 18 16 18 16 16 17 20 21 21 22 27 26 24 23 24 25 25 25 26 27 27 26 23 20 16 11 9 7 4 4 7 9 10
44 33 27 25 20 19 20 18 16 15 16 17 16 17 18 22 21 24 29 30 29 27 24 21 20 19 19 19 20 19 18 16 14 10 6 5 3 1 3 9 11 13 13
30 26 27 27 19 14 15 14 13 16 17 17 18 21 20 20 26 31 34 31 29 24 22 19 18 16 14 12 10 11 8 6 4 4 5 4 5 8 12 15 17 20 22
19 21 21 20 21 18 16 15 16 17 18 19 19 19 19 23 35 33 32 28 25 22 19 16 11 12 12 8 6 5 4 7 7 9 10 11 13 16 18 20 22 26 27
19 19 20 20 19 17 16 17 17 17 19 20 17 17 21 27 38 35 31 26 23 21 18 15 11 9 9 7 7 8 10 10 11 14 16 18 18 21 23 25 22 17 14
16 16 17 18 17 16 16 16 17 18 21 18 17 19 25 32 39 33 30 25 20 19 17 14 11 10 10 12 12 12 13 13 17 17 19 20 22 20 12 9 13 16 18
17 18 18 18 18 17 16 15 15 18 20 18 20 22 27 34 35 28 25 24 19 15 15 15 14 15 16 15 15 15 16 18 19 18 18 12 10 11 14 18 19 19 20
15 14 12 13 11 12 15 16 14 14 18 18 20 23 26 31 29 25 25 23 20 19 18 18 17 17 16 20 18 17 16 15 12 9 11 14 17 19 20 21 21 23 24
15 11 8 6 8 10 11 13 14 15 15 17 18 21 25 26 26 26 26 25 24 21 19 19 19 20 18 14 11 8 6 8 12 14 14 16 18 16 18 20 23 25 29

GFSGL_250_spd_060.txt.gz
Wind_Speed
107 107 107 106 104 104 102 101 99 98 102 99 96 97 93 100 105 101 98 95 84 86 84 76 79 81 81 85 93 87 81 75 74 66 57 52 53 52 48 41 20 9 6
110 108 107 107 107 106 106 106 102 101 102 98 96 97 104 96 94 93 85 82 80 79 77 76 82 80 86 92 91 84 80 75 71 62 53 50 48 45 42 29 15 11 14
113 110 109 109 106 104 104 105 107 106 103 102 98 99 96 84 91 82 84 84 80 79 78 84 81 81 90 94 87 84 78 74 66 58 48 43 39 38 37 23 15 14 17
115 116 111 112 110 107 103 101 99 101 100 100 103 99 93 89 91 81 84 90 78 81 81 81 84 86 95 90 90 81 76 68 56 46 40 35 32 35 30 23 19 19 19
112 113 116 113 112 111 107 99 98 98 94 91 89 99 97 96 83 82 90 89 81 80 85 88 88 93 92 93 81 79 67 55 45 41 34 33 32 35 31 23 20 24 24
105 110 110 110 112 110 105 105 95 87 89 86 82 84 88 91 90 76 89 89 86 84 86 88 91 88 83 79 79 70 57 46 41 33 33 31 34 33 28 23 21 22 19
88 94 99 105 107 107 105 103 95 92 85 87 88 85 77 79 78 78 89 85 84 88 89 89 89 86 79 77 70 56 48 41 36 33 29 31 31 30 26 24 23 22 23
75 85 86 90 99 105 100 95 96 98 91 88 88 89 83 82 85 88 88 86 82 86 89 94 89 78 77 66 55 49 42 35 33 33 28 29 27 27 25 22 20 19 18
58 66 73 76 83 93 92 90 76 107 99 94 90 92 89 80 91 89 82 82 80 84 86 78 74 72 65 56 51 42 33 31 32 28 25 28 27 25 20 16 19 25 24
45 49 55 55 56 64 74 76 80 82 109 104 93 84 82 88 85 83 83 86 85 79 76 71 69 59 53 47 37 30 28 30 30 29 26 26 24 20 19 16 14 19 26
34 37 39 40 42 48 57 62 68 64 97 112 102 92 90 88 85 87 86 79 80 72 68 62 54 48 40 34 31 30 28 25 25 25 24 25 21 17 16 16 12 14 21
26 31 35 39 43 51 59 63 60 58 63 85 97 97 96 93 88 81 75 73 68 59 52 48 38 37 33 35 36 35 29 30 26 25 19 20 18 14 16 16 13 13 17
20 26 30 35 45 52 53 51 40 40 39 50 76 90 88 80 77 67 61 57 47 43 39 35 33 32 34 36 36 33 28 26 29 29 18 16 16 17 17 15 15 17 21
24 29 35 40 45 48 47 47 43 38 36 39 50 54 57 47 47 46 40 37 36 35 32 30 31 33 35 34 30 29 28 26 28 28 32 28 19 21 19 14 9 10 10
46 53 57 59 58 56 51 46 40 31 30 31 33 36 42 40 38 34 33 33 31 29 30 31 29 27 26 24 23 23 24 24 23 29 37 23 18 14 10 6 2 1 3
74 73 71 66 62 52 48 42 35 28 25 28 28 30 31 28 29 29 30 30 27 29 26 22 18 15 12 12 14 15 15 15 23 26 20 15 12 12 9 6 4 3 4
81 73 70 65 62 47 45 43 27 33 31 30 31 30 27 26 27 28 27 24 23 18 14 10 11 11 10 8 5 5 15 20 19 14 17 17 15 12 8 5 3 4 5
73 54 41 45 33 31 43 44 43 38 35 31 28 24 21 21 21 20 18 20 19 20 25 24 22 22 22 24 25 26 31 29 26 22 18 15 12 9 5 1 4 6 9
47 51 37 43 43 48 55 51 43 35 30 26 24 19 18 16 17 18 22 25 29 30 29 27 24 23 21 20 20 21 22 21 18 14 11 8 6 4 5 7 10 12 13
36 30 42 40 38 39 39 39 36 33 27 22 19 18 15 16 21 25 30 34 32 30 28 23 20 19 17 17 15 14 13 11 8 6 4 1 4 6 9 13 15 17 18
40 41 39 32 33 32 27 25 24 22 20 19 19 16 18 24 25 31 35 34 31 28 24 20 18 14 12 10 6 4 2 4 4 4 5 7 9 12 14 16 20 23 22
27 27 28 25 26 29 26 24 20 18 17 15 13 18 22 24 29 36 34 31 28 24 21 17 15 13 9 8 7 7 8 8 8 7 11 12 14 16 18 20 16 11 11
27 24 20 18 17 14 12 13 15 14 13 14 18 20 22 26 33 36 32 30 27 22 18 17 12 9 8 7 8 10 11 11 12 13 16 16 17 16 11 8 10 14 14
16 15 14 14 13 12 13 13 14 15 16 17 17 18 24 30 37 34 31 27 25 21 19 17 13 11 11 12 13 13 14 16 15 16 17 15 10 11 13 15 17 18 16
15 13 12 10 9 10 9 12 13 17 19 16 17 21 25 31 31 30 29 27 24 20 17 15 14 14 14 15 15 17 16 15 16 13 11 12 14 16 14 14 16 17 22
11 9 9 8 10 10 13 14 15 18 18 17 18 20 22 26 27 28 26 26 24 22 20 16 16 17 17 18 20 20 18 14 11 10 12 9 10 13 15 17 24 21 25

GFSGL_250_spd_063.txt.gz
Wind_Speed
104 105 104 101 99 98 96 93 90 89 87 87 84 80 77 81 75 68 69 67 60 67 71 74 72 80 83 88 91 89 76 72 85 85 90 94 85 79 61 50 43 41 23
105 105 105 103 101 100 98 96 94 91 90 89 88 83 76 80 80 75 77 81 73 76 88 85 82 88 95 91 92 77 70 83 89 88 94 92 86 72 53 45 37 36 22
104 107 107 105 104 101 100 98 97 95 91 89 87 85 83 85 93 88 87 86 87 80 87 86 89 91 92 84 80 72 84 87 90 92 93 88 81 60 47 40 38 34 22
94 102 106 107 105 106 103 102 99 97 95 92 89 88 84 85 90 99 90 93 95 93 92 89 88 91 87 81 75 80 86 89 92 90 91 88 69 52 42 39 38 33 21
88 94 97 102 105 107 106 104 103 100 97 93 90 89 87 86 84 88 90 94 92 94 89 90 94 83 82 79 79 85 88 93 94 94 92 74 54 44 38 36 35 28 22
90 91 92 93 98 101 104 105 103 100 96 91 89 87 88 86 84 87 90 91 93 88 88 87 94 84 88 87 81 86 90 87 91 86 77 60 48 39 39 38 33 25 22
83 84 89 89 87 91 95 96 98 100 102 93 88 85 82 79 79 78 84 86 87 87 83 84 86 80 86 83 84 84 81 78 76 78 61 50 41 34 34 33 31 25 23
75 76 78 83 83 80 83 86 89 95 95 97 92 87 81 75 71 68 67 65 69 76 78 80 82 85 78 80 83 83 81 78 77 65 51 39 34 32 31 31 27 21 18
65 66 67 74 77 76 79 77 83 85 86 89 90 96 86 77 70 64 56 49 53 59 64 63 69 78 79 83 85 80 78 76 65 52 38 34 33 31 29 27 22 19 19
54 54 55 59 58 58 63 73 77 79 78 77 80 93 88 79 72 64 44 45 47 52 60 66 73 76 82 84 78 81 75 65 50 40 36 36 34 29 25 24 20 18 17
39 41 42 44 46 48 51 55 64 69 69 74 73 81 98 81 74 60 53 50 54 62 66 70 75 81 79 78 80 71 64 51 40 39 39 37 29 26 22 21 18 17 16
26 29 30 32 34 35 39 43 52 60 64 68 72 71 78 85 79 64 58 60 61 66 71 74 78 78 76 77 70 61 49 43 38 39 37 28 24 23 22 19 16 17 15
14 17 19 21 26 31 35 41 48 52 54 58 57 61 73 76 70 69 67 67 68 72 80 76 77 77 76 66 55 47 44 41 38 30 31 26 27 21 17 16 16 16 18
9 10 12 14 17 23 27 33 39 42 48 51 54 52 49 64 72 76 74 75 73 78 78 80 82 73 62 50 46 44 44 39 34 30 31 27 23 25 20 18 18 12 10
19 20 21 23 24 25 26 30 35 40 43 47 48 36 40 50 60 62 62 66 70 72 74 73 72 53 43 43 42 41 38 36 33 30 28 32 36 24 16 14 6 2 4
45 44 44 45 46 48 51 53 53 53 51 45 35 28 32 39 54 49 60 68 71 68 65 52 44 39 38 36 35 34 31 29 28 27 27 31 34 24 11 8 7 3 0
62 62 65 67 68 70 70 67 58 51 41 34 26 23 23 31 34 46 62 68 62 50 42 36 32 26 23 20 20 20 20 13 11 14 20 24 22 15 12 7 3 1 3
64 67 71 72 74 69 69 71 65 51 46 47 36 27 27 29 34 36 36 39 37 33 31 22 15 14 8 4 2 5 16 18 19 20 17 19 19 14 11 6 1 5 7
66 62 66 77 82 67 63 59 34 39 48 45 35 29 29 31 33 33 33 30 27 23 23 26 23 18 17 19 19 24 25 23 22 20 17 15 13 10 7 4 7 10 12
58 57 54 63 72 63 49 47 46 53 61 35 24 26 31 32 30 27 25 23 26 33 32 27 23 21 19 20 19 20 19 18 16 13 10 7 6 5 7 10 13 14 17
38 43 42 41 45 56 54 53 56 54 42 34 30 31 27 24 23 20 24 30 37 37 34 30 25 22 18 15 11 9 8 7 6 4 3 2 5 9 11 15 16 19 18
29 32 36 33 32 38 36 38 34 31 32 32 28 23 22 20 21 27 33 40 40 37 31 26 21 16 14 9 5 3 1 4 4 4 6 7 10 12 15 16 13 5 7
27 25 23 22 28 28 29 29 27 27 24 22 20 19 19 23 26 31 38 38 36 32 26 23 18 14 11 8 8 5 5 6 7 9 10 13 15 15 13 7 8 12 15
21 21 17 18 21 22 20 19 17 16 17 17 18 20 22 24 27 34 37 35 33 30 26 20 15 13 9 8 8 9 9 10 13 16 16 17 16 13 11 13 14 13 12
17 16 15 14 14 13 11 10 11 14 16 19 18 18 20 25 34 36 37 32 31 28 22 20 18 12 9 11 12 13 14 16 16 15 16 14 12 12 13 13 14 15 16
9 10 9 8 7 8 11 12 12 15 15 13 16 19 23 30 35 37 33 31 28 24 21 18 17 15 14 14 16 17 18 19 17 13 10 11 13 15 16 18 21 24 27

GFSGL_250_spd_069.txt.gz
Wind_Speed
104 105 104 101 100 99 99 97 96 93 91 90 89 88 87 87 87 86 81 76 75 76 78 79 74 72 73 75 65 57 58 62 64 64 60 64 69 73 79 87 90 94 94
100 102 103 102 100 99 99 98 98 96 95 94 92 90 88 86 84 80 79 77 77 81 80 80 78 72 68 68 66 63 63 67 63 65 60 61 65 72 78 88 90 93 90
99 100 101 102 101 100 99 98 96 96 95 94 92 92 90 87 85 81 78 77 77 74 76 81 81 76 71 70 68 68 64 65 66 66 62 62 69 71 81 83 86 87 92
90 89 93 96 96 95 95 95 95 95 95 94 92 90 88 88 88 85 82 79 75 73 74 72 73 72 70 71 73 71 69 71 68 71 70 73 71 78 82 86 88 86 73
89 87 87 88 88 91 92 91 93 93 93 93 92 89 89 87 86 85 85 81 78 75 71 68 68 68 61 67 68 70 71 74 72 77 77 76 75 80 79 78 88 72 73
84 83 84 84 82 82 84 87 87 87 89 89 91 91 89 87 86 84 82 81 79 74 69 65 66 64 61 62 67 67 70 76 71 74 77 80 78 75 66 80 72 71 74
85 87 85 85 85 84 84 82 83 86 87 87 87 87 87 87 86 84 81 78 74 70 66 65 64 61 55 57 62 62 68 75 73 74 78 83 82 82 73 69 64 70 63
71 80 89 92 93 93 92 90 88 88 89 88 85 84 83 83 82 82 81 76 70 65 64 63 62 57 49 52 54 57 68 67 71 73 76 74 65 72 62 60 62 67 49
60 71 81 92 96 97 96 96 96 95 92 88 84 81 78 77 79 79 78 74 69 62 60 58 55 52 51 50 52 56 59 61 63 64 53 43 50 53 56 60 66 59 45
51 63 72 81 86 90 91 93 93 90 89 87 87 81 73 69 73 75 76 72 66 58 54 51 48 50 47 45 52 51 49 52 57 42 42 51 54 55 59 63 64 46 46
53 60 66 73 79 83 85 83 80 71 64 60 62 70 75 67 67 71 73 70 64 57 50 48 47 45 36 34 31 30 41 46 40 41 44 49 53 56 58 64 51 45 36
41 49 56 59 62 65 69 71 65 58 49 46 48 54 64 70 69 68 68 67 61 54 48 45 42 37 35 31 27 36 42 41 41 45 45 52 53 56 65 47 44 42 28
33 36 41 46 50 53 55 54 53 49 44 46 49 57 66 70 65 65 63 63 57 53 48 43 35 31 33 28 31 38 41 41 40 43 47 51 55 61 49 42 43 31 24
27 30 32 35 38 40 42 43 42 42 43 43 44 51 61 63 56 61 58 58 55 50 50 39 30 31 33 32 39 41 38 41 42 47 51 56 57 61 44 41 33 26 24
20 21 25 28 30 33 35 35 34 34 35 38 43 49 52 53 53 57 56 54 55 50 53 39 36 40 38 38 40 40 40 43 49 53 57 59 58 47 44 35 26 23 19
16 17 17 18 21 23 24 25 27 29 33 36 37 39 41 49 52 52 51 53 53 55 47 42 38 41 40 38 31 36 40 48 53 56 57 58 51 45 35 24 21 19 15
9 11 12 13 13 15 17 18 19 23 27 30 33 38 44 47 50 52 51 55 53 47 42 41 39 41 39 34 37 42 47 48 54 61 62 52 43 32 26 17 11 9 12
19 18 17 16 16 16 18 21 24 27 31 37 42 47 50 51 54 53 51 50 51 47 42 40 37 33 33 37 38 44 50 54 53 50 44 39 32 25 21 15 13 12 11
32 34 33 30 27 27 31 34 37 41 45 48 50 53 58 59 58 57 58 56 54 46 41 35 28 28 29 34 37 39 37 36 35 26 20 14 12 18 20 17 14 11 10
39 52 54 47 42 40 40 40 42 48 52 54 58 58 61 61 60 61 58 54 49 42 35 33 31 30 29 28 22 16 10 8 10 12 14 17 20 19 17 13 11 11 13
45 59 64 64 68 70 68 58 56 54 46 45 48 52 52 55 55 52 47 44 40 39 36 32 27 22 18 19 17 14 13 12 13 13 13 13 11 9 9 10 10 11 14
38 41 47 52 47 50 57 57 54 51 50 50 46 42 40 40 40 28 27 26 27 29 29 26 19 24 26 21 18 14 13 12 10 8 8 7 5 4 5 7 10 11 8
25 33 40 41 39 38 39 38 39 38 37 34 32 32 29 27 22 24 25 26 27 26 24 19 31 32 26 21 16 12 10 7 4 4 3 3 5 7 7 7 8 7 8
18 19 24 33 31 26 23 25 23 25 24 23 21 18 16 15 17 19 23 25 25 25 25 39 38 29 21 16 12 10 6 4 4 4 5 7 8 7 7 7 7 9 12
12 13 16 18 19 16 12 9 8 8 10 11 10 11 9 9 15 20 22 23 25 35 43 42 35 25 17 12 12 8 6 6 6 7 9 10 8 8 6 6 9 12 13
8 5 5 4 3 2 2 3 3 6 5 5 4 7 10 13 18 21 25 31 39 43 43 37 29 21 16 14 11 6 6 5 6 9 10 9 7 6 6 10 12 14 15

GFSGL_250_spd_072.txt.gz
Wind_Speed
110 109 105 103 102 99 96 96 95 94 93 92 90 88 86 86 87 85 85 83 83 83 84 82 78 77 70 67 64 63 63 62 64 66 56 61 62 54 59 63 61 64 68
109 107 107 105 103 103 101 99 99 97 97 95 91 88 87 87 86 84 83 82 80 80 78 76 77 74 70 66 62 65 64 61 57 56 61 64 61 61 60 66 67 68 74
100 101 104 108 109 109 105 102 100 98 97 95 93 91 90 89 86 84 83 83 80 77 75 72 72 69 66 63 63 67 60 54 61 54 67 63 60 62 68 68 67 71 75
93 94 97 99 100 102 103 103 102 100 97 95 94 93 91 89 88 87 85 84 81 78 74 70 68 65 64 65 65 59 56 61 63 66 68 66 64 65 66 66 69 70 66
90 93 91 89 91 91 89 90 93 95 95 95 94 93 91 89 87 86 84 83 81 80 76 72 69 65 61 60 61 63 60 65 64 64 68 59 63 64 68 71 67 56 61
82 86 87 89 90 88 87 84 83 84 86 88 91 92 91 89 87 86 85 83 79 77 74 72 71 68 63 58 56 56 54 60 59 58 60 61 64 67 69 68 65 55 61
72 74 79 84 85 84 83 82 80 80 81 82 83 83 84 86 87 86 84 82 79 76 72 70 69 69 65 60 56 53 48 55 56 52 57 62 65 67 66 61 47 52 52
71 73 76 81 82 82 79 77 79 79 80 80 80 80 80 80 81 81 79 77 75 73 71 68 65 64 64 59 55 51 49 47 49 44 54 59 58 54 51 42 47 55 54
63 70 74 75 76 79 80 79 78 80 83 85 84 83 80 77 77 76 76 73 71 69 68 67 63 61 59 55 51 49 47 44 45 40 46 53 50 45 45 44 48 51 52
50 58 64 71 75 78 83 86 83 80 80 84 86 87 85 80 77 73 72 70 69 64 63 62 59 58 54 50 48 47 45 41 38 44 46 44 41 46 44 41 46 49 52
49 53 58 64 71 73 77 78 78 77 77 76 76 76 75 79 76 74 70 65 63 59 57 57 56 53 50 48 48 45 48 47 40 39 34 31 35 34 37 43 47 51 56
40 44 47 54 60 70 72 72 72 73 72 72 66 66 64 59 59 64 63 59 58 56 54 53 54 48 49 48 48 47 47 43 38 29 27 37 39 35 39 44 48 52 53
33 34 38 43 49 57 61 65 67 66 63 61 58 60 46 39 37 41 42 54 56 52 50 51 49 46 48 47 41 39 43 47 35 28 35 39 34 36 41 44 49 53 44
23 30 33 35 39 44 48 55 57 59 59 60 52 39 39 39 38 47 53 57 56 57 48 49 46 45 44 43 41 39 38 36 28 30 34 36 36 41 41 44 51 46 43
16 17 20 24 27 29 33 39 43 46 47 45 43 42 39 39 45 51 57 63 64 54 50 51 51 50 47 46 44 39 36 32 28 32 34 36 39 41 45 48 49 48 29
4 7 9 13 18 20 23 25 27 30 33 35 35 35 37 41 47 50 47 51 56 52 56 61 56 51 41 43 42 35 30 28 30 30 34 38 43 44 50 50 45 32 21
7 4 3 6 11 12 14 15 17 20 24 26 28 31 32 36 40 37 41 52 53 61 68 62 53 48 41 36 34 34 32 26 28 32 37 42 48 51 50 43 29 20 15
11 6 3 5 8 9 12 14 17 19 20 20 23 25 27 31 34 43 52 52 65 75 69 60 51 46 40 39 34 28 28 28 32 36 41 47 48 47 43 33 21 18 16
32 27 20 13 9 8 9 10 12 14 16 19 21 25 31 36 45 50 54 65 77 76 64 56 53 47 37 30 27 26 30 32 34 38 41 44 42 35 27 18 23 19 15
46 41 39 35 32 25 21 20 20 21 22 24 31 40 46 50 55 61 69 75 79 64 58 51 45 37 29 27 24 22 24 26 29 31 26 19 13 13 20 24 21 17 14
60 60 53 55 52 45 36 27 30 34 37 39 43 48 51 57 63 66 70 74 62 55 52 47 40 29 28 20 17 18 18 16 11 10 11 12 15 19 20 18 15 10 7
56 64 66 67 66 62 58 51 44 38 36 43 50 56 61 64 67 68 65 62 57 52 48 40 32 26 19 15 17 19 18 16 14 12 10 9 9 9 8 6 7 9 11
41 53 51 52 56 58 61 63 53 47 43 41 42 47 61 68 67 63 59 55 48 38 32 30 26 19 17 24 24 21 19 16 11 8 6 6 5 5 6 7 9 9 9
33 35 41 41 42 43 44 48 47 46 44 45 39 38 37 40 42 40 39 38 35 31 29 24 22 23 30 28 25 22 16 12 8 6 7 5 4 7 9 9 9 9 9
21 23 24 26 29 29 26 28 33 37 34 29 32 32 35 36 34 32 34 34 31 29 26 27 29 35 32 28 22 16 10 7 5 5 7 7 7 8 9 10 9 7 8
17 16 14 14 15 15 15 15 18 19 23 24 15 13 12 15 18 22 24 26 29 29 30 31 41 36 29 23 18 13 9 8 6 7 7 8 10 11 11 9 7 8 9

GFSGL_250_spd_075.txt.gz
Wind_Speed
108 111 116 116 113 106 103 98 95 92 91 90 91 89 88 87 85 84 83 81 82 87 90 91 91 90 85 80 72 71 67 65 67 69 63 59 56 55 47 51 51 55 57
103 102 106 112 112 107 105 103 100 97 94 92 92 90 86 84 83 83 83 83 84 86 86 85 84 81 78 76 72 69 70 67 65 63 60 55 49 46 45 50 58 61 60
99 100 101 101 100 104 106 104 104 103 100 98 97 94 90 86 84 82 80 80 82 83 83 82 81 79 77 74 70 67 66 64 63 62 58 48 49 45 54 59 63 62 57
93 96 94 90 91 96 102 105 105 104 102 100 98 96 94 91 88 85 83 82 81 80 79 78 76 73 71 68 66 64 61 61 58 55 53 53 52 49 54 58 66 59 58
86 89 88 86 88 91 95 99 102 103 103 100 97 96 95 92 89 87 86 85 83 82 82 79 76 71 68 65 61 59 55 56 54 52 52 57 57 57 62 60 58 54 58
72 77 83 82 83 84 87 90 91 93 93 91 89 90 90 90 90 89 86 85 83 82 81 79 77 75 71 67 62 59 56 54 52 54 55 60 65 66 57 49 55 59 58
68 67 70 77 81 80 82 82 78 82 83 83 81 81 82 84 86 87 87 85 83 81 80 78 77 74 68 66 64 60 58 53 51 48 51 57 56 49 50 49 54 58 52
63 65 64 66 68 73 77 76 71 74 75 75 75 75 76 78 80 83 84 84 83 81 80 79 77 74 68 62 60 58 55 53 51 51 45 48 44 42 44 48 53 50 45
55 59 62 62 65 66 70 70 71 71 74 74 73 73 72 72 75 75 76 77 77 78 79 78 77 74 68 62 58 56 53 51 52 53 46 46 41 41 48 44 43 43 44
51 55 58 59 60 62 66 67 71 72 73 73 74 73 73 72 74 75 75 73 71 70 70 71 72 71 66 59 57 54 53 48 52 53 51 46 46 47 44 42 44 34 36
49 51 55 55 56 59 62 64 68 68 69 70 71 72 72 73 73 72 71 70 68 67 65 64 63 61 58 55 54 53 50 47 50 50 44 44 44 43 41 32 30 32 35
37 40 44 50 55 56 57 59 60 61 63 65 69 72 74 75 76 74 72 69 67 61 59 58 55 52 51 48 51 51 50 46 47 43 44 43 45 43 41 36 32 34 36
24 26 31 37 42 47 51 55 54 56 55 58 58 60 62 66 67 71 72 70 66 59 58 52 49 46 47 46 47 47 46 45 46 45 44 46 48 46 39 35 33 34 36
21 26 30 33 35 38 42 46 47 50 56 56 52 52 53 47 51 53 44 45 47 53 57 57 49 42 44 46 47 44 44 44 44 43 43 45 46 40 37 34 34 36 38
15 19 22 26 28 31 34 35 38 43 46 46 46 42 37 38 37 34 29 29 43 48 61 57 50 44 43 46 45 42 43 41 40 44 46 43 38 36 32 34 35 38 39
7 9 12 16 19 23 26 28 30 32 35 35 35 34 35 34 32 29 35 47 56 61 64 64 52 46 49 48 49 47 48 48 49 50 46 42 39 32 30 33 37 39 41
9 7 7 9 11 13 17 20 22 24 27 25 30 34 32 30 28 34 47 51 60 66 66 60 59 61 59 57 54 53 52 50 46 44 41 38 35 29 32 37 40 42 45
18 14 10 8 7 8 11 14 15 17 19 19 20 23 24 25 29 39 43 50 52 58 58 66 71 69 63 59 54 51 50 47 45 42 35 30 28 32 37 41 43 46 45
33 26 19 13 10 7 4 6 8 11 16 21 25 27 28 30 33 36 43 42 45 57 63 71 73 68 62 55 54 50 45 37 29 29 25 25 30 40 42 45 48 47 33
45 41 38 29 18 12 9 8 11 13 17 19 23 28 32 34 34 35 38 45 57 67 74 74 69 62 58 51 49 43 35 33 25 23 26 31 36 44 46 44 36 25 26
56 52 51 47 38 31 23 17 14 14 18 24 28 31 33 38 41 46 53 59 69 74 76 71 65 57 50 39 34 30 25 21 22 25 28 29 25 23 23 21 21 23 23
63 64 58 55 50 46 36 28 27 24 21 21 27 37 43 50 54 58 64 74 77 79 76 71 58 53 41 35 29 24 22 23 22 18 14 10 8 10 15 19 20 18 16
52 55 60 59 57 56 50 39 32 33 34 36 40 42 51 56 65 78 80 81 78 73 67 55 46 40 36 32 28 23 22 20 18 16 14 13 12 12 13 14 14 14 13
42 44 47 48 52 51 54 54 47 34 35 41 47 54 66 78 81 80 76 72 65 58 51 45 42 38 32 26 23 23 22 20 18 17 15 14 11 10 11 11 12 12 12
29 32 34 36 38 41 43 44 44 36 32 43 57 66 74 75 77 70 65 61 58 53 45 41 34 28 24 25 27 25 23 21 18 15 15 12 9 8 10 13 14 14 13
20 21 23 25 27 30 32 31 33 32 31 31 41 54 57 62 53 49 46 43 43 39 39 31 28 25 30 31 30 26 21 18 15 13 10 9 8 11 14 17 15 13 11

GFSGL_250_spd_078.txt.gz
Wind_Speed
104 102 101 103 108 113 117 117 113 107 106 101 97 94 93 92 90 86 83 82 80 77 76 73 72 73 73 72 75 71 59 64 77 78 74 69 61 57 57 57 53 46 46
99 100 101 105 104 102 98 99 103 105 105 104 102 99 94 92 90 88 85 82 82 81 80 78 76 76 78 78 77 75 75 78 80 77 72 68 61 55 58 53 49 37 47
95 101 101 102 103 105 101 96 93 91 96 102 105 103 99 95 93 89 85 81 80 79 79 80 80 80 79 80 80 78 79 78 78 76 69 65 59 56 55 55 42 37 46
77 85 95 102 104 104 102 95 97 97 95 94 101 104 103 100 97 94 89 83 80 78 77 77 78 79 80 81 80 78 75 73 72 68 66 62 59 54 52 54 43 44 55
67 71 79 85 90 94 92 90 91 92 91 93 96 100 103 103 100 97 93 89 85 82 80 77 76 75 77 76 75 74 72 68 65 59 57 55 52 50 50 52 45 47 55
58 63 64 67 69 75 78 79 81 83 87 91 92 94 100 102 100 99 96 93 90 87 85 82 80 77 74 72 69 67 63 60 57 53 54 50 48 47 48 48 47 52 55
54 59 61 61 61 63 66 69 72 77 81 84 86 86 89 94 99 99 98 94 91 88 86 84 82 79 77 73 69 65 62 58 56 53 52 50 47 44 44 44 50 49 46
49 54 60 60 61 60 59 62 65 70 77 78 80 79 79 81 86 90 93 93 91 88 87 85 82 80 78 73 70 65 61 57 54 54 54 50 45 41 43 44 39 42 39
46 48 56 61 57 57 58 59 61 64 69 70 73 73 71 70 73 75 78 80 82 82 81 81 81 80 78 74 71 67 62 57 53 52 52 51 47 50 46 44 44 42 40
44 50 55 59 58 57 52 56 59 62 63 63 65 68 67 65 64 64 66 69 72 75 74 74 76 77 77 74 72 67 62 56 54 52 52 52 50 52 48 46 43 40 40
43 46 49 54 55 53 53 53 54 57 58 59 60 60 64 63 63 63 64 65 66 67 65 66 67 68 68 64 63 62 58 56 54 53 52 51 50 53 54 47 43 41 37
33 35 39 45 48 49 50 52 53 54 56 58 57 57 63 63 62 62 64 65 64 63 61 61 62 63 61 58 56 54 52 55 53 50 49 50 50 49 50 47 40 36 34
25 30 33 34 39 42 43 46 48 49 51 52 55 56 61 63 64 65 65 62 61 61 60 60 59 58 54 51 48 47 47 52 52 48 49 48 45 45 40 44 40 35 35
18 27 34 32 36 39 39 40 41 44 47 49 52 53 58 59 59 62 63 62 62 59 60 60 58 57 50 44 44 44 44 47 47 45 45 45 41 43 46 45 36 35 35
13 18 27 27 28 28 30 32 36 41 44 45 46 48 51 53 55 58 57 59 58 57 59 60 55 54 51 42 43 41 44 44 44 45 45 39 44 45 44 38 34 38 40
4 10 17 19 20 20 21 25 29 29 33 37 37 37 41 44 41 45 48 47 48 48 53 53 51 56 51 44 42 41 42 42 45 44 41 47 51 44 35 35 37 39 34
7 1 6 11 13 15 18 22 24 25 27 29 30 30 32 34 33 35 36 36 40 39 44 44 54 62 60 49 47 45 44 44 44 43 47 48 37 34 37 38 41 35 36
14 7 3 5 7 11 15 18 18 19 22 25 26 26 28 30 32 35 34 40 38 45 51 56 63 67 61 59 54 49 50 47 47 50 37 36 38 40 40 41 38 36 40
32 23 15 9 6 10 13 15 15 17 20 22 25 28 32 37 34 38 42 45 51 59 60 61 66 62 63 57 57 58 52 51 50 45 39 35 42 40 41 40 38 38 40
40 36 31 22 13 8 6 9 11 14 19 21 24 28 32 37 44 48 48 51 52 51 48 51 41 58 59 60 60 61 56 53 47 44 41 42 41 40 36 38 39 41 41
46 42 41 36 28 16 10 8 8 13 19 21 23 26 31 33 36 41 40 37 32 32 36 35 55 59 66 65 65 60 54 49 47 43 39 36 36 36 35 37 45 47 49
55 51 46 44 38 29 20 12 11 12 14 18 22 23 23 24 26 29 32 32 32 39 50 62 70 68 70 69 64 55 52 45 41 32 30 32 30 30 33 37 40 36 26
49 50 49 49 48 40 32 26 22 19 15 17 21 24 29 34 38 40 41 49 53 63 74 75 71 70 68 60 52 44 38 35 32 31 28 25 25 20 17 15 14 18 18
41 45 50 50 49 53 45 36 32 31 26 24 30 33 35 40 47 52 58 68 77 76 74 70 66 59 51 45 41 35 32 30 25 24 25 26 21 16 13 12 14 16 17
28 33 40 45 48 51 48 44 37 36 33 32 36 42 46 55 69 74 77 76 75 72 70 64 56 50 48 43 38 34 30 26 25 26 25 21 17 15 14 15 15 15 16
22 21 26 31 34 33 37 41 48 49 47 50 56 61 68 72 70 70 69 66 65 62 55 48 49 44 38 36 35 30 30 29 28 25 21 19 16 15 13 12 15 17 16

GFSGL_250_spd_084.txt.gz
Wind_Speed
105 107 109 112 115 113 110 105 108 109 111 110 109 110 106 101 90 86 89 100 94 87 87 87 81 85 79 83 81 74 68 65 60 63 58 53 49 53 56 50 47 43 44
90 95 103 112 116 115 112 105 97 99 94 72 63 66 67 57 38 57 84 96 81 82 99 88 82 77 76 76 76 70 69 68 60 61 59 53 51 50 52 49 51 51 52
78 77 84 89 102 107 107 101 87 85 79 54 54 48 46 41 43 56 92 95 85 81 85 74 79 84 85 82 78 68 71 66 61 58 59 54 52 51 52 52 50 50 57
65 66 70 70 79 86 86 81 71 63 63 61 57 50 58 66 86 83 97 112 108 90 91 99 91 85 82 79 76 73 71 65 64 61 62 58 54 52 51 51 54 52 53
55 59 60 61 66 69 71 67 57 60 57 67 60 56 67 76 69 91 113 109 118 116 115 81 89 83 82 80 78 76 73 68 65 63 64 59 56 53 52 49 46 46 47
50 52 52 51 52 56 54 57 52 48 61 74 72 71 66 86 92 90 99 105 109 114 102 89 94 86 84 85 85 85 82 76 71 64 63 60 55 52 51 48 45 45 43
48 47 47 44 44 41 42 45 44 36 73 75 78 92 99 95 103 109 118 120 111 106 104 101 95 84 76 71 71 71 73 73 72 64 61 58 55 49 47 44 42 40 37
37 40 43 40 40 39 41 53 63 64 90 82 84 94 97 102 91 99 107 110 105 105 101 108 94 83 78 69 63 61 61 65 69 65 63 58 53 47 42 39 39 36 34
34 35 35 37 37 40 45 61 68 72 52 89 82 90 102 105 106 104 103 104 106 106 110 96 90 86 80 73 70 67 65 62 63 68 64 60 55 49 45 42 38 35 35
29 27 28 29 35 39 43 54 66 74 71 78 91 98 90 103 107 109 110 109 109 104 93 92 92 88 81 75 73 69 65 59 58 61 63 60 56 52 47 43 38 38 36
27 23 21 24 26 35 42 45 56 67 76 69 67 71 83 91 93 97 96 94 86 87 88 84 80 74 72 68 65 63 60 55 54 56 58 58 55 51 45 40 39 37 38
28 21 17 16 24 29 37 42 47 56 66 69 71 68 56 62 68 71 70 73 71 68 68 65 58 60 58 56 56 55 53 50 49 52 55 56 54 50 46 39 38 37 37
27 21 16 12 16 26 33 38 41 46 52 58 64 66 51 44 51 53 52 51 54 56 53 50 51 52 49 48 48 48 46 44 44 44 45 47 47 46 44 40 38 36 39
28 22 15 12 13 19 27 31 33 42 46 47 48 56 55 46 38 38 43 46 45 45 46 48 48 46 46 45 46 45 43 40 38 38 38 39 39 41 41 39 36 38 38
29 21 13 8 10 14 19 24 29 38 41 39 43 50 55 53 34 30 45 48 49 47 47 46 46 47 45 43 43 42 38 35 34 34 35 35 37 37 36 38 39 39 38
30 22 14 6 4 5 9 16 26 30 35 40 43 45 47 44 49 42 58 58 44 44 42 45 45 45 45 44 43 41 37 35 33 32 33 34 37 37 35 35 35 36 44
41 28 18 11 5 1 7 10 16 24 32 38 42 48 50 55 58 63 63 56 45 43 41 42 44 45 45 45 45 42 42 37 33 33 34 36 39 40 33 30 31 34 35
41 40 34 22 14 6 1 4 9 15 23 29 35 42 47 52 60 61 56 55 48 42 43 39 42 45 46 46 46 45 41 37 36 37 36 39 42 40 36 33 34 34 34
47 42 37 29 20 13 8 7 9 14 21 26 31 33 34 41 46 51 50 47 47 42 43 41 45 47 47 47 46 42 38 38 40 40 40 44 44 43 35 37 36 35 35
50 47 39 32 22 15 10 7 6 7 10 15 19 25 30 35 36 37 42 45 45 41 43 43 44 47 46 47 44 41 39 44 46 47 47 48 47 43 41 38 43 45 41
54 49 44 34 26 17 11 9 7 5 6 11 15 20 24 28 34 36 38 41 44 44 46 46 47 47 47 48 44 39 45 52 53 54 52 53 49 43 41 45 45 40 41
53 55 50 39 28 19 13 9 5 2 3 7 13 18 23 28 31 33 34 38 41 42 40 43 45 47 44 36 36 38 50 54 55 57 57 51 44 42 38 46 38 37 37
49 52 53 47 36 29 23 16 9 6 5 3 7 13 16 18 23 26 26 28 30 31 36 37 34 33 30 34 35 42 50 54 60 61 53 49 45 41 37 42 33 31 36
46 48 53 53 50 43 31 25 20 13 9 6 5 9 12 13 15 15 17 20 21 24 22 28 27 20 34 35 42 52 56 64 65 56 51 46 41 39 39 38 37 33 29
43 43 46 48 50 51 47 35 28 23 18 12 8 8 10 16 18 23 20 21 20 28 31 28 30 38 40 43 48 56 63 62 57 52 48 42 36 38 37 33 32 29 29
41 38 38 40 42 47 49 51 39 33 27 23 20 18 20 23 25 23 23 24 23 30 37 47 50 51 53 60 65 64 61 54 50 48 40 35 37 37 33 29 28 28 26

GFSGL_250_spd_087.txt.gz
Wind_Speed
89 95 101 107 110 112 116 114 113 109 109 106 101 110 111 109 102 103 98 80 72 77 71 79 82 81 81 78 79 62 58 51 50 58 57 60 54 51 47 45 45 46 46
63 76 78 85 92 101 109 115 115 111 106 97 93 89 84 76 77 77 64 60 49 54 66 84 85 89 81 72 70 61 45 50 54 54 59 55 56 50 45 45 45 46 45
62 68 75 74 75 78 82 87 96 105 110 103 93 82 70 55 52 42 34 31 41 54 75 86 81 92 62 49 46 48 47 43 44 46 55 56 53 50 49 45 44 44 43
56 62 68 73 73 72 68 69 75 81 85 93 95 80 68 65 60 64 53 61 42 44 73 72 70 49 74 71 58 54 48 49 52 51 54 53 58 53 52 47 47 47 46
58 57 62 69 70 70 64 59 61 66 70 74 76 76 72 70 67 78 80 92 83 87 73 69 70 67 86 76 67 57 57 55 60 65 64 68 59 60 59 52 49 48 46
60 60 63 62 62 64 60 49 50 53 58 59 62 75 80 77 74 79 90 94 76 93 99 75 80 84 90 88 78 82 70 61 65 79 69 66 69 68 63 57 52 46 44
61 58 54 50 53 53 51 42 44 47 53 49 63 75 82 76 75 84 88 93 84 80 83 91 94 91 94 95 100 90 65 65 62 62 74 74 69 69 71 68 58 48 42
55 52 47 43 44 41 39 36 42 44 48 54 69 68 80 80 79 80 90 88 94 94 94 89 92 100 104 109 108 84 69 64 66 77 81 79 70 67 65 67 59 48 40
49 43 38 36 36 34 31 31 38 42 49 60 74 75 75 79 84 87 87 92 95 98 103 102 104 114 112 106 100 98 80 75 81 86 86 79 70 61 56 58 54 45 36
50 36 30 31 31 28 31 29 37 45 57 66 78 73 73 65 77 87 89 92 93 105 103 110 111 106 109 108 107 96 90 88 89 92 87 82 71 60 55 53 52 43 37
52 38 28 24 25 24 32 32 41 51 63 69 63 55 52 72 74 80 86 99 95 94 96 103 104 102 104 103 104 100 93 97 99 98 92 89 75 61 55 52 54 46 40
53 37 27 20 21 22 32 35 39 53 56 72 77 77 72 78 90 89 98 98 107 105 97 98 103 106 104 104 105 101 95 99 100 95 93 82 69 58 53 52 54 48 42
50 38 26 19 20 18 30 40 40 49 64 73 76 78 79 73 82 80 95 96 102 109 106 104 101 104 105 103 100 99 99 96 94 87 74 65 58 53 50 50 51 46 42
47 41 29 21 17 15 24 34 46 51 65 76 73 76 85 82 80 76 67 81 85 91 97 99 105 103 102 101 103 102 95 85 67 59 54 50 48 46 47 48 49 46 43
51 43 31 20 14 12 17 32 45 54 62 77 76 79 81 73 69 79 78 69 78 85 93 100 103 99 99 99 95 84 66 56 53 48 46 45 41 41 43 44 47 45 42
54 45 31 21 12 6 11 23 37 52 52 66 76 81 74 71 72 74 71 76 78 75 72 70 72 70 66 66 67 59 54 51 47 42 40 39 37 38 41 42 43 42 40
52 49 38 23 12 6 12 19 28 36 47 57 59 65 60 69 69 74 68 69 69 64 58 54 57 52 51 53 55 50 46 43 41 39 39 40 38 38 39 40 41 42 47
53 51 47 33 17 5 5 15 19 24 30 34 43 45 46 50 63 72 71 70 70 63 56 49 43 39 44 50 51 47 44 41 39 38 39 37 38 40 40 40 44 42 42
56 55 50 38 28 13 6 6 16 19 22 29 38 42 48 50 55 61 64 67 62 56 44 44 40 42 43 45 44 44 43 40 38 36 36 38 39 41 42 45 43 37 36
57 56 48 39 31 19 9 6 4 10 15 19 23 32 43 51 60 68 67 66 64 56 47 36 40 46 44 44 41 39 40 41 40 39 40 41 43 48 47 45 42 39 38
54 55 51 39 32 22 13 8 4 7 12 19 27 36 45 48 48 57 66 68 62 57 49 49 45 48 47 45 41 39 38 40 41 43 47 45 49 52 50 46 47 43 44
59 54 53 48 39 29 19 12 5 3 9 15 21 29 35 40 41 47 52 54 55 54 50 49 49 50 49 43 41 39 38 40 45 51 51 51 55 53 51 48 49 49 47
58 57 53 52 47 39 26 18 10 2 7 13 17 22 26 33 39 44 49 52 54 54 49 46 52 52 46 43 42 37 40 43 49 55 59 60 59 55 51 50 48 48 47
52 56 55 53 50 50 35 21 17 10 3 3 8 15 19 20 25 33 37 40 44 46 48 48 47 41 41 42 36 35 43 46 53 59 61 64 59 58 52 48 44 45 44
45 49 51 50 49 51 51 36 25 19 15 7 5 7 11 14 16 19 21 26 30 30 32 34 35 34 26 30 34 40 48 57 56 64 65 61 59 53 47 45 44 40 41
36 40 43 45 46 45 48 51 46 36 24 19 12 10 12 16 16 16 18 19 22 23 26 29 30 32 34 33 38 44 45 51 65 68 64 63 55 51 48 50 47 43 35